Wind_Speed
12 14 15 15 16 15 14 13 11 10 8 7 5 4 3 4 3 3 1 1 3 4 5 6 7 7 9 9 9 10 10 11 12 13 15 17 17 17 16 16 16 17 19
11 12 14 16 16 16 15 14 11 9 7 5 5 5 5 6 6 5 4 4 4 5 6 6 6 7 7 9 10 10 11 11 12 14 15 16 17 18 18 18 18 19 20
12 12 14 16 17 17 16 14 12 10 8 7 6 6 6 7 7 7 7 7 7 7 8 9 9 9 10 11 11 11 11 12 13 14 16 17 18 18 19 19 19 20 20
10 13 14 15 15 16 15 14 12 10 9 8 7 8 8 8 8 9 9 10 10 9 9 10 10 11 12 12 12 12 12 13 13 15 15 17 17 18 19 20 20 20 21
9 11 13 15 15 15 14 13 12 11 10 10 10 9 8 9 10 10 11 12 12 12 12 11 13 13 13 13 14 13 13 13 14 15 16 17 18 19 20 20 21 21 21
7 10 11 13 13 14 14 13 13 12 12 12 12 10 10 10 10 12 13 14 14 15 14 14 14 14 14 15 15 14 14 13 14 15 16 18 19 20 21 21 21 21 21
8 11 12 13 13 14 15 14 13 13 13 13 13 12 12 12 13 13 14 14 15 16 16 16 16 16 16 16 16 16 15 15 15 17 18 19 20 21 22 22 22 23 23
10 12 13 14 15 15 14 14 14 14 14 14 14 14 14 14 15 16 16 16 17 17 17 17 17 17 16 17 18 17 16 16 17 17 18 20 21 22 23 23 24 25 25
12 13 15 16 16 16 15 15 16 15 15 15 15 15 16 16 17 16 17 17 18 18 19 19 19 18 19 19 19 18 17 17 17 18 19 20 22 23 24 24 25 26 28
14 14 16 16 17 16 16 17 17 16 16 16 17 17 17 18 18 18 18 19 19 19 20 21 21 21 20 19 19 19 19 19 20 19 20 22 23 24 25 25 26 27 28
16 15 16 17 18 18 18 18 17 17 17 18 18 19 19 20 20 21 19 20 20 20 21 21 21 21 22 21 20 20 21 21 22 22 23 24 24 25 26 27 27 29 30
17 17 17 18 20 20 19 19 19 18 18 19 20 21 22 22 22 23 22 20 20 20 22 22 21 22 23 22 22 23 23 23 23 25 25 25 26 26 28 28 28 30 31
18 19 19 20 21 22 22 21 20 21 21 21 22 22 23 22 23 24 24 23 23 22 22 22 23 23 24 25 24 25 25 25 26 27 27 27 27 28 29 29 29 30 30
21 23 22 21 23 22 23 22 22 22 23 23 23 24 24 22 23 24 25 27 26 25 24 23 23 24 25 27 27 28 26 28 29 29 29 30 29 29 30 29 30 31 30
26 25 25 24 24 23 23 25 25 25 25 25 24 23 23 22 23 23 25 26 29 29 26 24 26 26 27 28 29 30 29 30 30 30 31 31 31 31 31 32 31 30 30
27 28 28 27 25 25 25 26 26 26 27 24 23 23 23 23 23 24 26 28 31 33 35 28 27 27 29 29 30 32 31 32 32 33 33 33 33 34 34 34 32 31 31
25 23 25 26 27 25 25 28 26 26 30 26 28 24 22 23 25 26 27 31 33 35 40 34 34 31 32 32 31 34 34 34 34 34 35 36 36 35 35 34 32 34 36
29 30 29 28 29 26 26 29 28 33 31 26 30 28 26 25 27 28 30 29 34 34 39 41 39 35 36 36 36 37 37 37 39 36 35 37 36 36 37 37 32 36 39
25 29 31 31 34 36 34 31 30 29 27 32 28 34 28 28 30 30 34 37 35 37 40 44 45 40 42 40 41 40 39 38 39 36 37 40 39 40 37 34 34 43 49
32 30 30 31 32 30 34 34 33 37 35 36 35 36 36 36 37 39 41 42 40 42 42 45 47 47 46 42 42 42 42 40 41 42 42 47 44 41 42 45 45 47 50
37 34 36 37 34 34 37 37 39 39 38 39 38 37 44 40 42 44 47 47 46 48 47 48 52 49 53 48 47 48 48 48 49 46 48 47 48 49 47 46 45 46 47
41 42 44 35 41 44 43 40 43 40 47 48 48 51 50 51 52 50 47 50 42 49 58 50 49 51 54 53 51 50 51 50 53 50 50 50 49 49 48 46 48 51 51
42 45 44 40 40 42 47 52 52 46 49 48 51 49 48 48 50 51 50 50 49 49 49 58 58 63 56 56 59 55 59 56 57 54 50 51 50 43 45 51 46 53 54
45 48 50 53 53 58 60 56 54 54 54 53 52 49 49 49 49 50 54 50 59 59 54 59 58 59 65 56 56 57 60 57 58 51 43 49 53 49 56 47 52 49 45
43 44 45 46 47 48 49 48 48 47 52 46 46 50 51 50 51 48 55 49 53 50 56 53 58 53 59 52 54 52 52 53 55 54 53 53 51 47 46 44 43 42 45
38 38 38 39 39 40 42 43 45 49 50 53 56 55 54 52 52 52 57 56 58 58 57 52 63 53 62 55 54 49 52 53 45 46 46 49 47 47 48 47 48 47 47
Wind_Direction
184 188 189 189 188 188 187 185 183 178 171 167 169 181 187 196 192 212 214 319 339 351 355 3 358 7 5 8 8 8 11 14 11 7 5 3 2 2 358 356 353 353 350
176 183 189 187 185 185 187 185 188 187 189 187 193 217 208 213 221 234 253 275 295 314 324 330 338 344 346 349 353 354 357 359 1 1 360 358 359 359 354 351 349 348 347
169 174 179 180 182 184 186 189 194 201 211 213 215 229 231 227 234 237 248 266 277 296 308 319 322 328 332 338 339 342 345 344 349 352 354 351 353 350 350 349 346 344 341
175 168 174 179 183 187 190 192 200 209 224 240 232 229 241 248 245 252 257 265 276 280 290 304 312 319 321 324 327 329 330 333 339 343 341 346 342 345 346 347 343 341 342
184 178 178 182 184 192 198 200 210 222 235 246 252 250 243 255 269 269 268 271 274 280 288 295 302 306 310 314 315 320 323 324 328 332 334 334 337 339 342 342 342 340 340
198 199 194 192 193 199 207 213 221 230 241 250 254 262 266 263 260 265 272 273 275 277 282 286 291 298 303 305 312 314 311 316 319 321 327 329 332 332 336 339 338 334 334
212 214 208 206 207 211 217 222 231 239 246 253 261 267 271 274 277 275 269 268 270 273 278 283 287 292 296 301 304 304 309 310 313 317 321 321 324 326 331 331 331 331 330
217 222 220 219 220 222 229 235 242 249 253 258 261 266 270 273 275 277 278 280 280 277 273 277 279 283 288 294 298 300 301 305 308 310 313 316 318 321 324 326 327 328 327
224 226 229 229 228 229 232 239 245 248 253 261 265 269 273 274 275 278 279 280 278 280 282 282 282 282 286 289 291 293 294 296 298 301 304 308 313 316 318 322 324 324 323
238 232 232 233 238 238 240 240 246 252 257 261 267 270 274 277 278 279 279 277 278 277 276 278 280 281 282 282 284 286 288 290 293 296 300 304 308 312 316 319 319 319 318
249 245 241 239 237 236 238 242 246 252 260 265 267 270 272 273 275 276 276 276 276 275 275 274 274 276 278 279 279 280 282 286 290 295 297 300 305 308 311 313 315 316 316
252 253 249 244 243 242 241 242 245 250 254 260 266 269 272 273 276 277 279 276 273 271 274 277 276 275 275 276 276 277 281 285 287 290 294 298 302 304 306 309 312 313 314
256 256 251 249 246 246 247 249 252 255 258 262 265 267 269 273 276 278 278 278 277 274 272 273 275 271 271 273 274 274 278 281 284 287 292 296 299 300 302 306 308 309 307
254 255 256 256 253 250 253 254 258 261 265 268 269 270 270 271 272 274 277 278 276 274 271 271 271 274 271 269 271 274 277 280 285 288 291 293 295 297 299 300 303 305 305
251 254 256 253 256 253 254 259 263 264 267 270 272 271 271 273 277 279 278 278 279 274 266 262 266 267 270 271 274 276 277 279 281 284 287 291 294 295 295 296 299 303 300
249 250 253 257 257 257 256 261 266 271 272 275 277 273 279 280 282 283 290 290 287 286 278 271 267 267 267 269 273 275 276 277 281 283 285 287 289 291 293 294 296 301 305
248 250 254 260 266 267 268 267 270 276 274 273 274 287 278 288 289 288 288 290 292 289 289 279 277 275 274 272 272 274 275 277 277 280 282 284 286 288 288 288 289 295 297
246 248 248 259 265 269 261 263 278 274 266 278 276 275 277 276 278 283 284 296 283 292 289 290 289 284 281 284 280 275 276 277 279 282 282 286 289 286 285 284 289 294 293
245 249 248 249 254 258 262 265 267 275 271 268 276 270 280 278 280 286 288 284 288 285 292 288 295 291 295 287 286 286 284 284 286 292 289 290 286 288 289 288 290 289 294
252 252 251 253 258 261 263 262 258 266 270 270 270 270 272 276 278 280 278 278 278 280 282 284 289 293 294 291 291 291 289 288 285 285 283 287 288 282 288 292 285 295 288
261 262 264 258 269 271 270 267 267 268 262 272 268 268 268 273 275 277 273 278 278 276 279 282 281 286 291 286 288 283 284 286 284 284 279 285 281 286 280 290 288 291 299
264 263 268 262 260 269 283 273 279 277 272 269 268 271 271 274 277 277 278 269 277 279 277 275 278 282 288 288 281 284 282 285 280 281 279 281 279 284 284 285 287 282 291
261 267 260 269 258 258 262 269 270 271 271 272 273 273 276 273 274 276 278 276 277 276 279 281 278 284 283 290 287 281 283 285 282 283 277 287 278 277 280 286 279 291 290
256 255 254 257 256 257 260 265 264 262 265 263 265 271 275 272 273 271 273 274 274 273 277 276 275 283 278 284 283 286 279 284 285 285 284 287 287 281 289 286 283 287 289
260 261 261 262 262 262 263 265 266 264 267 265 266 268 270 272 277 271 279 272 276 280 278 280 279 284 279 277 280 285 282 279 281 282 284 288 292 292 291 290 291 287 289
255 258 261 262 265 266 267 267 267 264 264 263 264 265 267 267 268 273 271 277 275 277 282 282 281 284 283 287 289 288 285 288 291 288 288 289 289 290 291 290 291 290 287
Height
3179 3180 3183 3185 3187 3188 3190 3192 3194 3195 3198 3200 3200 3200 3201 3201 3201 3201 3201 3201 3201 3200 3200 3199 3198 3197 3196 3195 3194 3192 3190 3188 3186 3184 3182 3180 3177 3175 3173 3170 3168 3165 3162
3178 3180 3182 3184 3186 3188 3191 3192 3193 3195 3197 3199 3199 3199 3200 3201 3201 3201 3201 3201 3201 3200 3200 3199 3198 3197 3196 3195 3193 3191 3189 3187 3185 3183 3181 3179 3177 3173 3172 3169 3166 3163 3161
3178 3179 3181 3183 3186 3188 3190 3192 3194 3195 3196 3198 3199 3199 3199 3200 3200 3200 3200 3200 3199 3199 3198 3197 3197 3195 3194 3192 3191 3189 3187 3185 3183 3182 3179 3178 3175 3173 3170 3167 3164 3162 3159
3177 3179 3180 3183 3185 3187 3189 3191 3193 3195 3196 3197 3198 3199 3198 3198 3198 3198 3198 3198 3198 3197 3196 3196 3195 3193 3192 3191 3189 3187 3186 3184 3182 3180 3179 3176 3175 3171 3168 3165 3163 3160 3157
3176 3178 3180 3182 3184 3187 3189 3190 3192 3194 3194 3195 3195 3195 3196 3196 3196 3196 3196 3196 3196 3195 3194 3193 3193 3192 3191 3189 3187 3185 3184 3182 3180 3179 3177 3175 3172 3168 3166 3163 3161 3158 3155
3175 3176 3178 3181 3182 3185 3187 3188 3190 3191 3192 3193 3193 3193 3193 3194 3195 3194 3194 3193 3193 3192 3191 3190 3190 3189 3187 3187 3185 3183 3182 3179 3178 3177 3174 3172 3169 3166 3164 3161 3158 3155 3152
3174 3175 3177 3179 3181 3182 3185 3186 3187 3189 3190 3190 3190 3190 3190 3190 3191 3191 3191 3190 3190 3188 3187 3187 3186 3185 3184 3183 3181 3179 3178 3176 3175 3173 3171 3169 3166 3164 3161 3158 3155 3151 3147
3173 3173 3175 3176 3178 3180 3182 3184 3185 3186 3187 3188 3188 3188 3187 3188 3187 3187 3187 3186 3186 3185 3184 3183 3182 3180 3179 3178 3176 3175 3174 3172 3171 3169 3167 3165 3163 3160 3157 3154 3150 3146 3143
3171 3172 3173 3175 3176 3178 3180 3181 3182 3183 3183 3184 3184 3185 3184 3184 3184 3183 3183 3182 3181 3180 3179 3179 3178 3176 3175 3173 3172 3171 3170 3168 3167 3165 3163 3161 3158 3155 3152 3149 3145 3142 3139
3168 3170 3171 3172 3173 3175 3177 3178 3179 3179 3180 3180 3181 3181 3180 3180 3179 3179 3178 3177 3177 3176 3175 3174 3173 3172 3170 3169 3168 3166 3165 3164 3162 3160 3158 3156 3153 3150 3147 3144 3141 3137 3133
3165 3167 3168 3169 3170 3172 3174 3174 3175 3175 3176 3176 3176 3176 3175 3175 3174 3173 3174 3173 3171 3171 3170 3169 3168 3167 3165 3164 3163 3162 3160 3159 3157 3155 3152 3150 3148 3145 3142 3138 3135 3131 3127
3162 3163 3164 3166 3166 3168 3169 3170 3170 3170 3171 3171 3171 3170 3170 3170 3169 3167 3166 3167 3166 3166 3164 3163 3162 3161 3159 3158 3157 3156 3154 3153 3151 3149 3146 3144 3142 3139 3136 3133 3129 3125 3121
3157 3158 3160 3161 3162 3163 3164 3164 3165 3165 3165 3165 3165 3165 3165 3164 3162 3161 3160 3159 3159 3160 3159 3158 3157 3155 3154 3152 3151 3149 3148 3147 3145 3142 3140 3138 3135 3133 3130 3126 3123 3119 3115
3152 3153 3154 3155 3156 3157 3159 3159 3159 3160 3159 3159 3159 3159 3159 3158 3157 3156 3155 3153 3152 3152 3152 3152 3152 3150 3148 3146 3145 3143 3142 3140 3138 3136 3134 3131 3129 3126 3123 3119 3116 3112 3108
3146 3147 3148 3149 3151 3152 3153 3153 3153 3154 3153 3154 3153 3153 3153 3153 3152 3151 3149 3148 3145 3144 3145 3146 3144 3143 3140 3139 3138 3136 3134 3132 3131 3129 3126 3124 3121 3118 3115 3112 3109 3106 3102
3140 3141 3142 3143 3144 3145 3146 3146 3146 3147 3146 3146 3146 3146 3146 3146 3145 3144 3143 3141 3139 3136 3133 3137 3137 3136 3134 3133 3131 3129 3128 3125 3123 3121 3118 3116 3113 3109 3106 3103 3101 3098 3094
3133 3135 3137 3137 3138 3139 3139 3139 3140 3140 3139 3140 3140 3140 3140 3141 3139 3139 3138 3136 3133 3131 3124 3128 3126 3127 3125 3124 3123 3120 3119 3117 3115 3112 3109 3106 3104 3101 3097 3094 3092 3089 3086
3127 3129 3131 3132 3132 3133 3133 3133 3134 3134 3133 3134 3134 3133 3134 3134 3132 3132 3131 3129 3126 3125 3119 3115 3118 3117 3116 3115 3112 3111 3109 3108 3105 3103 3100 3096 3094 3091 3088 3085 3083 3080 3077
3121 3123 3124 3125 3126 3127 3126 3126 3127 3128 3127 3128 3128 3127 3128 3127 3125 3125 3123 3120 3120 3117 3113 3108 3105 3108 3106 3105 3103 3101 3099 3097 3095 3093 3091 3087 3085 3081 3078 3077 3074 3070 3067
3113 3115 3117 3117 3118 3117 3118 3118 3118 3120 3120 3120 3120 3119 3118 3119 3117 3117 3114 3112 3111 3108 3106 3101 3098 3097 3097 3096 3094 3092 3089 3088 3085 3083 3080 3076 3074 3071 3067 3066 3062 3059 3056
3106 3107 3108 3107 3108 3109 3109 3110 3110 3111 3110 3111 3109 3109 3109 3107 3108 3106 3104 3102 3100 3098 3096 3092 3088 3086 3084 3083 3084 3082 3078 3076 3071 3070 3068 3066 3064 3060 3057 3054 3050 3048 3044
3096 3097 3098 3098 3097 3099 3098 3100 3101 3101 3101 3100 3100 3099 3098 3097 3095 3094 3093 3092 3090 3088 3084 3080 3078 3074 3073 3070 3066 3068 3066 3062 3055 3057 3054 3051 3050 3047 3046 3043 3040 3035 3032
3085 3087 3088 3088 3089 3090 3089 3089 3089 3090 3089 3088 3087 3085 3085 3083 3082 3080 3079 3078 3078 3077 3074 3069 3065 3064 3058 3057 3055 3049 3046 3047 3044 3039 3037 3036 3033 3033 3033 3029 3026 3023 3019
3074 3075 3076 3076 3076 3077 3076 3074 3075 3076 3075 3075 3073 3072 3071 3070 3069 3067 3067 3065 3065 3063 3060 3058 3053 3050 3047 3044 3041 3038 3034 3030 3028 3027 3023 3020 3022 3021 3020 3015 3013 3009 3007
3062 3062 3062 3062 3062 3062 3062 3062 3062 3063 3062 3061 3060 3058 3057 3056 3054 3053 3052 3048 3050 3048 3045 3042 3040 3037 3035 3032 3028 3025 3022 3018 3013 3013 3011 3007 3006 3005 3004 3001 3000 2998 2995
3050 3051 3051 3051 3051 3051 3051 3050 3050 3049 3049 3048 3046 3045 3044 3043 3041 3040 3039 3036 3035 3035 3032 3030 3030 3025 3023 3020 3015 3011 3009 3005 3001 2999 3000 2998 2995 2992 2989 2988 2987 2985 2982